Tracking 28518 objects as of 2-Mar-2024
HD Live streaming from Space Station
objects crossing your sky now

GENMAT-1

Track GENMAT-1 now!
10-day predictions


NORAD ID: 58276
Int'l Code: 2023-174W
Perigee: 522.4 km
Apogee: 534.6 km
Inclination: 97.5 °
Period: 95.1 minutes
Semi major axis: 6899 km
RCS: Unknown
Launch date: November 11, 2023
Source: United States (US)
Launch site: AIR FORCE WESTERN TEST RANGE (AFWTR)
Your satellite tracking list
Your tracking list is empty




NASA's NSSDC Master Catalog

Two Line Element Set (TLE):
1 58276U 23174W   24061.77199482  .00004153  00000-0  22651-3 0  9997
2 58276  97.4597 137.6526 0008853 249.6998 110.3283 15.14886311 17400
Source of the keplerian elements: AFSPC